,,,PA_Meas_PMT16A,,PR_Meas_QMR101_102,,RH_Meas_QMH101,,SR_Meas_QMS101,,TA_Meas_QMH101,,GenWind,,GenWind,
date,time,status,PA,status,PR,status,RH,status,SR,status,TA,status,DirAvg,status,SpdAvg,
2011-12-12, 00:00:05,VALID,999.289,VALID,0,VALID,90.1058,VALID,0,VALID,23.5469,VALID,142,VALID,0,
2011-12-12, 00:01:05,VALID,999.3,VALID,0,VALID,90.144,VALID,0,VALID,23.5469,VALID,142,VALID,0,
2011-12-12, 00:02:05,VALID,999.315,VALID,0,VALID,90.2279,VALID,0,VALID,23.5274,VALID,142,VALID,0.357422,
2011-12-12, 00:03:05,VALID,999.3,VALID,0,VALID,90.1592,VALID,0,VALID,23.5079,VALID,142,VALID,0.345313,
2011-12-12, 00:04:05,VALID,999.292,VALID,0,VALID,90.205,VALID,0,VALID,23.4866,VALID,142,VALID,0.268359,
2011-12-12, 00:05:05,VALID,999.293,VALID,0,VALID,90.2966,VALID,0,VALID,23.4884,VALID,142,VALID,0.144141,
2011-12-12, 00:06:05,VALID,999.272,VALID,0,VALID,90.3271,VALID,0,VALID,23.4493,VALID,142,VALID,0.181641,
2011-12-12, 00:07:05,VALID,999.273,VALID,0,VALID,90.411,VALID,0,VALID,23.4688,VALID,142,VALID,0.158984,
2011-12-12, 00:08:05,VALID,999.276,VALID,0,VALID,90.6094,VALID,0,VALID,23.4688,VALID,142,VALID,0.407813,
2011-12-12, 00:09:05,VALID,999.271,VALID,0,VALID,90.823,VALID,0,VALID,23.4671,VALID,142,VALID,0.25625,
2011-12-12, 00:10:05,VALID,999.257,VALID,0,VALID,90.8917,VALID,0,VALID,23.4653,VALID,131,VALID,0.657812,
2011-12-12, 00:11:05,VALID,999.241,VALID,0,VALID,90.9298,VALID,0,VALID,23.5256,VALID,131,VALID,0.525,
2011-12-12, 00:12:05,VALID,999.237,VALID,0,VALID,90.8001,VALID,0,VALID,23.5646,VALID,131,VALID,0.417188,
2011-12-12, 00:13:05,VALID,999.221,VALID,0,VALID,90.5941,VALID,0,VALID,23.6036,VALID,131,VALID,0.214062,
2011-12-12, 00:14:05,VALID,999.207,VALID,0,VALID,90.4949,VALID,0,VALID,23.6036,VALID,131,VALID,0,
2011-12-12, 00:15:05,VALID,999.181,VALID,0,VALID,90.4873,VALID,0,VALID,23.6019,VALID,131,VALID,0,
2011-12-12, 00:16:05,VALID,999.177,VALID,0,VALID,90.4491,VALID,0,VALID,23.6232,VALID,131,VALID,0,
2011-12-12, 00:17:05,VALID,999.143,VALID,0,VALID,90.3042,VALID,0,VALID,23.6036,VALID,131,VALID,0,
2011-12-12, 00:18:05,VALID,999.14,VALID,0,VALID,90.2737,VALID,0,VALID,23.5646,VALID,131,VALID,0,
2011-12-12, 00:19:05,VALID,999.148,VALID,0,VALID,90.3271,VALID,0,VALID,23.5451,VALID,131,VALID,0,
2011-12-12, 00:20:05,VALID,999.112,VALID,0,VALID,90.2203,VALID,0,VALID,23.5061,VALID,135,VALID,0.05625,
2011-12-12, 00:21:05,VALID,999.095,VALID,0,VALID,90.1592,VALID,0,VALID,23.4866,VALID,150,VALID,0.820313,
2011-12-12, 00:22:05,VALID,999.104,VALID,0,VALID,90.0143,VALID,0,VALID,23.4671,VALID,155,VALID,0.707812,
2011-12-12, 00:23:05,VALID,999.052,VALID,0,VALID,90.1134,VALID,0,VALID,23.4475,VALID,159,VALID,0.806641,
2011-12-12, 00:24:05,VALID,999.053,VALID,0,VALID,90.2355,VALID,0,VALID,23.4848,VALID,154,VALID,0.754687,
2011-12-12, 00:25:05,VALID,999.044,VALID,0,VALID,90.0677,VALID,0,VALID,23.5451,VALID,154,VALID,0.621094,
2011-12-12, 00:26:05,VALID,999.032,VALID,0,VALID,89.854,VALID,0,VALID,23.5646,VALID,154,VALID,0.820703,
2011-12-12, 00:27:05,VALID,999.026,VALID,0,VALID,89.7091,VALID,0,VALID,23.5823,VALID,154,VALID,0.675391,
2011-12-12, 00:28:05,VALID,998.996,VALID,0,VALID,89.5565,VALID,0,VALID,23.5823,VALID,150,VALID,0.796094,
2011-12-12, 00:29:05,VALID,999.003,VALID,0,VALID,89.5489,VALID,0,VALID,23.6232,VALID,147,VALID,0.833594,
2011-12-12, 00:30:05,VALID,998.982,VALID,0,VALID,89.526,VALID,0,VALID,23.6232,VALID,147,VALID,0.705469,
2011-12-12, 00:31:05,VALID,999.005,VALID,0,VALID,89.4039,VALID,0,VALID,23.6232,VALID,147,VALID,0.711328,
2011-12-12, 00:32:05,VALID,998.99,VALID,0,VALID,89.6023,VALID,0,VALID,23.6232,VALID,147,VALID,0.718359,
2011-12-12, 00:33:05,VALID,998.965,VALID,0,VALID,89.6938,VALID,0,VALID,23.6214,VALID,147,VALID,0.844141,
2011-12-12, 00:34:05,VALID,998.97,VALID,0,VALID,89.732,VALID,0,VALID,23.6019,VALID,147,VALID,0.784375,
2011-12-12, 00:35:05,VALID,998.964,VALID,0,VALID,89.5946,VALID,0,VALID,23.6232,VALID,147,VALID,1.20859,
2011-12-12, 00:36:05,VALID,998.949,VALID,0,VALID,89.7167,VALID,0,VALID,23.6214,VALID,145,VALID,1.07891,
2011-12-12, 00:37:05,VALID,998.951,VALID,0,VALID,89.5794,VALID,0.104696,VALID,23.6622,VALID,138,VALID,1.14414,
2011-12-12, 00:38:05,VALID,998.923,VALID,0,VALID,89.4268,VALID,0,VALID,23.6409,VALID,139,VALID,0.987109,
2011-12-12, 00:39:05,VALID,998.902,VALID,0,VALID,89.381,VALID,0,VALID,23.6445,VALID,139,VALID,0.769922,
2011-12-12, 00:40:05,VALID,998.876,VALID,0,VALID,89.4344,VALID,0,VALID,23.6445,VALID,131,VALID,0.6125,
2011-12-12, 00:41:05,VALID,998.849,VALID,0,VALID,89.4573,VALID,0,VALID,23.6054,VALID,131,VALID,0.632422,
2011-12-12, 00:42:05,VALID,998.815,VALID,0,VALID,89.5717,VALID,0,VALID,23.5841,VALID,131,VALID,0.688281,
2011-12-12, 00:43:05,VALID,998.783,VALID,0,VALID,89.5336,VALID,0,VALID,23.5859,VALID,131,VALID,0.492578,
2011-12-12, 00:44:05,VALID,998.747,VALID,0,VALID,89.4954,VALID,0,VALID,23.5646,VALID,131,VALID,0.296875,
2011-12-12, 00:45:05,VALID,998.732,VALID,0,VALID,89.6557,VALID,0,VALID,23.5664,VALID,131,VALID,0.408594,
2011-12-12, 00:46:05,VALID,998.718,VALID,0,VALID,89.8311,VALID,0,VALID,23.5451,VALID,131,VALID,0.639844,
2011-12-12, 00:47:05,VALID,998.76,VALID,0,VALID,89.9151,VALID,0,VALID,23.5859,VALID,131,VALID,0.501172,
2011-12-12, 00:48:05,VALID,998.745,VALID,0,VALID,89.7854,VALID,0,VALID,23.5646,VALID,131,VALID,0.696484,
2011-12-12, 00:49:05,VALID,998.752,VALID,0,VALID,89.7549,VALID,0,VALID,23.5859,VALID,131,VALID,0.683203,
2011-12-12, 00:50:05,VALID,998.733,VALID,0,VALID,89.6938,VALID,0,VALID,23.5859,VALID,131,VALID,0.760938,
2011-12-12, 00:51:05,VALID,998.745,VALID,0,VALID,89.526,VALID,0,VALID,23.6036,VALID,131,VALID,0.883984,
2011-12-12, 00:52:05,VALID,998.732,VALID,0,VALID,89.381,VALID,0,VALID,23.625,VALID,131,VALID,0.833984,
2011-12-12, 00:53:05,VALID,998.724,VALID,0,VALID,89.32,VALID,0,VALID,23.625,VALID,131,VALID,0.992578,
2011-12-12, 00:54:05,VALID,998.729,VALID,0,VALID,89.4726,VALID,0,VALID,23.6036,VALID,131,VALID,0.810938,
2011-12-12, 00:55:05,VALID,998.747,VALID,0,VALID,89.5107,VALID,0,VALID,23.6036,VALID,131,VALID,0.792578,
2011-12-12, 00:56:05,VALID,998.725,VALID,0,VALID,89.648,VALID,0,VALID,23.6036,VALID,132,VALID,0.658984,
2011-12-12, 00:57:05,VALID,998.733,VALID,0,VALID,89.648,VALID,0,VALID,23.6019,VALID,131,VALID,0.639063,
2011-12-12, 00:58:05,VALID,998.688,VALID,0,VALID,89.587,VALID,0,VALID,23.6232,VALID,131,VALID,0.585938,
2011-12-12, 00:59:05,VALID,998.685,VALID,0,VALID,89.648,VALID,0,VALID,23.6232,VALID,131,VALID,0.541016,
2011-12-12, 01:00:05,VALID,998.674,VALID,0,VALID,89.5717,VALID,0,VALID,23.6427,VALID,131,VALID,0.448438,
2011-12-12, 01:01:05,VALID,998.654,VALID,0,VALID,89.4726,VALID,0,VALID,23.6232,VALID,131,VALID,0.490625,
2011-12-12, 01:02:05,VALID,998.639,VALID,0,VALID,89.5107,VALID,0,VALID,23.6232,VALID,131,VALID,0.498047,
2011-12-12, 01:03:05,VALID,998.627,VALID,0,VALID,89.4115,VALID,0.104696,VALID,23.6019,VALID,131,VALID,0.474609,
2011-12-12, 01:04:05,VALID,998.635,VALID,0,VALID,89.3276,VALID,0,VALID,23.6036,VALID,131,VALID,0.419531,
2011-12-12, 01:05:05,VALID,998.615,VALID,0,VALID,89.3352,VALID,0,VALID,23.5646,VALID,131,VALID,0.319922,
2011-12-12, 01:06:05,VALID,998.618,VALID,0,VALID,89.5031,VALID,0,VALID,23.5061,VALID,131,VALID,0.240625,
2011-12-12, 01:07:05,VALID,998.644,VALID,0,VALID,89.8083,VALID,0,VALID,23.4475,VALID,131,VALID,0.316406,
2011-12-12, 01:08:05,VALID,998.617,VALID,0,VALID,89.999,VALID,0,VALID,23.3677,VALID,131,VALID,0.203906,
2011-12-12, 01:09:05,VALID,998.621,VALID,0,VALID,90.1897,VALID,0,VALID,23.3518,VALID,131,VALID,0.126953,
2011-12-12, 01:10:05,VALID,998.565,VALID,0,VALID,90.3805,VALID,0,VALID,23.2932,VALID,131,VALID,0.0753906,
2011-12-12, 01:11:05,VALID,998.539,VALID,0,VALID,90.6094,VALID,0,VALID,23.2542,VALID,131,VALID,0.433594,
2011-12-12, 01:12:05,VALID,998.564,VALID,0,VALID,90.8154,VALID,0,VALID,23.2347,VALID,131,VALID,0.558203,
2011-12-12, 01:13:05,VALID,998.544,VALID,0,VALID,91.0977,VALID,0,VALID,23.2347,VALID,131,VALID,0.546875,
2011-12-12, 01:14:05,VALID,998.566,VALID,0,VALID,91.2655,VALID,0,VALID,23.2542,VALID,131,VALID,0.546484,
2011-12-12, 01:15:05,VALID,998.556,VALID,0,VALID,91.2655,VALID,0,VALID,23.2932,VALID,131,VALID,0.480078,
2011-12-12, 01:16:05,VALID,998.573,VALID,0,VALID,91.1129,VALID,0,VALID,23.3323,VALID,131,VALID,0.440625,
2011-12-12, 01:17:05,VALID,998.608,VALID,0,VALID,90.8917,VALID,0,VALID,23.3713,VALID,131,VALID,0.5375,
2011-12-12, 01:18:05,VALID,998.592,VALID,0,VALID,90.6933,VALID,0,VALID,23.3695,VALID,131,VALID,0.458594,
2011-12-12, 01:19:05,VALID,998.588,VALID,0,VALID,90.5254,VALID,0,VALID,23.3908,VALID,131,VALID,0.414063,
2011-12-12, 01:20:05,VALID,998.613,VALID,0,VALID,90.556,VALID,0,VALID,23.3908,VALID,131,VALID,0.495313,
2011-12-12, 01:21:05,VALID,998.591,VALID,0,VALID,90.7085,VALID,0,VALID,23.4103,VALID,131,VALID,0.800391,
2011-12-12, 01:22:05,VALID,998.637,VALID,0,VALID,90.7314,VALID,0,VALID,23.4298,VALID,131,VALID,0.774219,
2011-12-12, 01:23:05,VALID,998.661,VALID,0,VALID,90.6857,VALID,0,VALID,23.4298,VALID,131,VALID,0.493359,
2011-12-12, 01:24:05,VALID,998.667,VALID,0,VALID,90.6399,VALID,0,VALID,23.4298,VALID,131,VALID,0.350781,
2011-12-12, 01:25:04,VALID,998.646,VALID,0,VALID,90.7009,VALID,0,VALID,23.4103,VALID,131,VALID,0.207422,
2011-12-12, 01:26:04,VALID,998.664,VALID,0,VALID,90.8917,VALID,0,VALID,23.389,VALID,131,VALID,0.231641,
2011-12-12, 01:27:04,VALID,998.663,VALID,0,VALID,91.1511,VALID,0,VALID,23.3908,VALID,131,VALID,0.419922,
2011-12-12, 01:28:04,VALID,998.639,VALID,0,VALID,91.3571,VALID,0,VALID,23.3518,VALID,131,VALID,0.476953,
2011-12-12, 01:29:04,VALID,998.646,VALID,0,VALID,91.5402,VALID,0,VALID,23.3323,VALID,131,VALID,0.398047,
2011-12-12, 01:30:04,VALID,998.605,VALID,0,VALID,91.6394,VALID,0,VALID,23.3127,VALID,128,VALID,0.379297,
2011-12-12, 01:31:04,VALID,998.592,VALID,0,VALID,91.7385,VALID,0,VALID,23.2932,VALID,128,VALID,0.382031,
2011-12-12, 01:32:04,VALID,998.6,VALID,0,VALID,91.853,VALID,0,VALID,23.2932,VALID,128,VALID,0.376172,
2011-12-12, 01:33:04,VALID,998.585,VALID,0,VALID,91.8759,VALID,0,VALID,23.2347,VALID,128,VALID,0,
2011-12-12, 01:34:04,VALID,998.607,VALID,0,VALID,91.914,VALID,0,VALID,23.2152,VALID,128,VALID,0,
2011-12-12, 01:35:04,VALID,998.589,VALID,0,VALID,91.8988,VALID,0,VALID,23.1762,VALID,128,VALID,0,
2011-12-12, 01:36:04,VALID,998.608,VALID,0,VALID,91.9217,VALID,0,VALID,23.1371,VALID,128,VALID,0,
2011-12-12, 01:37:04,VALID,998.586,VALID,0,VALID,91.9598,VALID,0,VALID,23.0981,VALID,128,VALID,0,
2011-12-12, 01:38:04,VALID,998.57,VALID,0,VALID,91.9369,VALID,0,VALID,23.0591,VALID,128,VALID,0,
2011-12-12, 01:39:04,VALID,998.555,VALID,0,VALID,91.9445,VALID,0,VALID,23.0183,VALID,128,VALID,0,
2011-12-12, 01:40:04,VALID,998.576,VALID,0,VALID,92.0361,VALID,0,VALID,22.9988,VALID,128,VALID,0,
2011-12-12, 01:41:04,VALID,998.569,VALID,0,VALID,92.1963,VALID,0,VALID,22.9793,VALID,128,VALID,0,
2011-12-12, 01:42:04,VALID,998.57,VALID,0,VALID,92.2955,VALID,0,VALID,22.9811,VALID,128,VALID,0,
2011-12-12, 01:43:04,VALID,998.584,VALID,0,VALID,92.4252,VALID,0,VALID,22.9811,VALID,128,VALID,0,
2011-12-12, 01:44:04,VALID,998.59,VALID,0,VALID,92.4634,VALID,0,VALID,22.9403,VALID,128,VALID,0,
2011-12-12, 01:45:04,VALID,998.608,VALID,0,VALID,92.532,VALID,0,VALID,22.9208,VALID,128,VALID,0,
2011-12-12, 01:46:04,VALID,998.587,VALID,0,VALID,92.6694,VALID,0,VALID,22.942,VALID,128,VALID,0,
2011-12-12, 01:47:04,VALID,998.604,VALID,0,VALID,92.7991,VALID,0,VALID,22.9403,VALID,128,VALID,0,
2011-12-12, 01:48:04,VALID,998.607,VALID,0,VALID,92.9211,VALID,0,VALID,22.9615,VALID,128,VALID,0,
2011-12-12, 01:49:04,VALID,998.593,VALID,0,VALID,93.0127,VALID,0,VALID,22.9615,VALID,128,VALID,0,
2011-12-12, 01:50:04,VALID,998.574,VALID,0,VALID,93.0814,VALID,0,VALID,22.9403,VALID,128,VALID,0,
2011-12-12, 01:51:04,VALID,998.581,VALID,0,VALID,93.1271,VALID,0,VALID,22.9615,VALID,128,VALID,0,
2011-12-12, 01:52:04,VALID,998.566,VALID,0,VALID,93.1119,VALID,0,VALID,22.9225,VALID,128,VALID,0,
2011-12-12, 01:53:04,VALID,998.549,VALID,0,VALID,93.089,VALID,0,VALID,22.9225,VALID,128,VALID,0.420312,
2011-12-12, 01:54:04,VALID,998.505,VALID,0,VALID,93.0966,VALID,0,VALID,22.8818,VALID,18,VALID,0.409766,
2011-12-12, 01:55:04,VALID,998.5,VALID,0,VALID,93.1119,VALID,0,VALID,22.8818,VALID,18,VALID,0.333594,
2011-12-12, 01:56:04,VALID,998.522,VALID,0,VALID,93.089,VALID,0,VALID,22.903,VALID,18,VALID,0.355469,
2011-12-12, 01:57:04,VALID,998.493,VALID,0,VALID,93.0814,VALID,0,VALID,22.8623,VALID,18,VALID,0.269531,
2011-12-12, 01:58:04,VALID,998.47,VALID,0,VALID,93.1043,VALID,0,VALID,22.8835,VALID,18,VALID,0.133203,
2011-12-12, 01:59:04,VALID,998.471,VALID,0,VALID,93.15,VALID,0,VALID,22.8818,VALID,18,VALID,0,
2011-12-12, 02:00:04,VALID,998.437,VALID,0,VALID,93.1653,VALID,0,VALID,22.8427,VALID,18,VALID,0,
2011-12-12, 02:01:04,VALID,998.465,VALID,0,VALID,93.1958,VALID,0,VALID,22.8427,VALID,18,VALID,0,
2011-12-12, 02:02:04,VALID,998.445,VALID,0,VALID,93.2645,VALID,0,VALID,22.8427,VALID,18,VALID,0,
2011-12-12, 02:03:04,VALID,998.459,VALID,0,VALID,93.3255,VALID,0,VALID,22.8427,VALID,18,VALID,0,
2011-12-12, 02:04:04,VALID,998.427,VALID,0,VALID,93.356,VALID,0,VALID,22.8445,VALID,18,VALID,0,
2011-12-12, 02:05:04,VALID,998.429,VALID,0,VALID,93.356,VALID,0,VALID,22.825,VALID,18,VALID,0,
2011-12-12, 02:06:04,VALID,998.403,VALID,0,VALID,93.3866,VALID,0,VALID,22.8037,VALID,18,VALID,0,
2011-12-12, 02:07:04,VALID,998.394,VALID,0,VALID,93.3637,VALID,0,VALID,22.7842,VALID,18,VALID,0.48125,
2011-12-12, 02:08:04,VALID,998.393,VALID,0,VALID,93.3637,VALID,0,VALID,22.7452,VALID,18,VALID,0.401172,
2011-12-12, 02:09:04,VALID,998.393,VALID,0,VALID,93.3331,VALID,0,VALID,22.7257,VALID,18,VALID,0.465234,
2011-12-12, 02:10:04,VALID,998.399,VALID,0,VALID,93.3179,VALID,0.104696,VALID,22.685,VALID,18,VALID,0.572656,
2011-12-12, 02:11:04,VALID,998.387,VALID,0,VALID,93.3408,VALID,0,VALID,22.7062,VALID,18,VALID,0.489844,
2011-12-12, 02:12:04,VALID,998.403,VALID,0,VALID,93.4171,VALID,0,VALID,22.6655,VALID,18,VALID,0.508203,
2011-12-12, 02:13:04,VALID,998.404,VALID,0,VALID,93.501,VALID,0.104696,VALID,22.6867,VALID,18,VALID,0.553516,
2011-12-12, 02:14:04,VALID,998.447,VALID,0,VALID,93.5239,VALID,0.104696,VALID,22.6867,VALID,18,VALID,0.546484,
2011-12-12, 02:15:04,VALID,998.439,VALID,0,VALID,93.5163,VALID,0.104696,VALID,22.646,VALID,18,VALID,0.455469,
2011-12-12, 02:16:04,VALID,998.442,VALID,0,VALID,93.5468,VALID,0.104696,VALID,22.6264,VALID,18,VALID,0.384766,
2011-12-12, 02:17:04,VALID,998.459,VALID,0,VALID,93.5849,VALID,0,VALID,22.6069,VALID,18,VALID,0.510547,
2011-12-12, 02:18:04,VALID,998.461,VALID,0,VALID,93.6078,VALID,0.104696,VALID,22.6087,VALID,18,VALID,0.196094,
2011-12-12, 02:19:04,VALID,998.469,VALID,0,VALID,93.6154,VALID,0.104696,VALID,22.5679,VALID,18,VALID,0.249219,
2011-12-12, 02:20:04,VALID,998.488,VALID,0,VALID,93.6612,VALID,0,VALID,22.5696,VALID,18,VALID,0,
2011-12-12, 02:21:04,VALID,998.516,VALID,0,VALID,93.7223,VALID,0.104696,VALID,22.5679,VALID,18,VALID,0,
2011-12-12, 02:22:04,VALID,998.508,VALID,0,VALID,93.7604,VALID,0.104696,VALID,22.5679,VALID,18,VALID,0,
2011-12-12, 02:23:04,VALID,998.523,VALID,0,VALID,93.7909,VALID,0.104696,VALID,22.5679,VALID,18,VALID,0,
2011-12-12, 02:24:04,VALID,998.524,VALID,0,VALID,93.852,VALID,0,VALID,22.6299,VALID,18,VALID,0,
2011-12-12, 02:25:04,VALID,998.499,VALID,0,VALID,93.913,VALID,0,VALID,22.6689,VALID,18,VALID,0.481641,
2011-12-12, 02:26:04,VALID,998.526,VALID,0,VALID,93.9817,VALID,0,VALID,22.6867,VALID,18,VALID,0.503516,
2011-12-12, 02:27:04,VALID,998.517,VALID,0,VALID,94.0198,VALID,0,VALID,22.7062,VALID,18,VALID,0.566797,
2011-12-12, 02:28:04,VALID,998.512,VALID,0,VALID,94.0656,VALID,0,VALID,22.7062,VALID,18,VALID,0.351953,
2011-12-12, 02:29:04,VALID,998.527,VALID,0,VALID,94.1037,VALID,0,VALID,22.7274,VALID,18,VALID,0.489844,
2011-12-12, 02:30:04,VALID,998.517,VALID,0,VALID,94.1266,VALID,0,VALID,22.7062,VALID,18,VALID,0.575391,
2011-12-12, 02:31:04,VALID,998.504,VALID,0,VALID,94.1495,VALID,0,VALID,22.7062,VALID,18,VALID,0.567578,
2011-12-12, 02:32:04,VALID,998.511,VALID,0,VALID,94.1724,VALID,0.104696,VALID,22.7062,VALID,18,VALID,0.521094,
2011-12-12, 02:33:04,VALID,998.492,VALID,0,VALID,94.18,VALID,0,VALID,22.7257,VALID,18,VALID,0.534766,
2011-12-12, 02:34:04,VALID,998.507,VALID,0,VALID,94.2105,VALID,0,VALID,22.7062,VALID,18,VALID,0.512891,
2011-12-12, 02:35:04,VALID,998.522,VALID,0,VALID,94.2105,VALID,0,VALID,22.6867,VALID,18,VALID,0.465234,
2011-12-12, 02:36:04,VALID,998.52,VALID,0,VALID,94.1953,VALID,0,VALID,22.6867,VALID,18,VALID,0.212891,
2011-12-12, 02:37:04,VALID,998.525,VALID,0,VALID,94.2258,VALID,0,VALID,22.6867,VALID,18,VALID,0.293359,
2011-12-12, 02:38:04,VALID,998.5,VALID,0,VALID,94.2029,VALID,0,VALID,22.6672,VALID,18,VALID,0.208984,
2011-12-12, 02:39:04,VALID,998.501,VALID,0,VALID,94.1877,VALID,0,VALID,22.6477,VALID,18,VALID,0.326953,
2011-12-12, 02:40:04,VALID,998.509,VALID,0,VALID,94.2029,VALID,0,VALID,22.6477,VALID,18,VALID,0.338281,
2011-12-12, 02:41:04,VALID,998.495,VALID,0,VALID,94.2029,VALID,0,VALID,22.6672,VALID,18,VALID,0.330469,
2011-12-12, 02:42:04,VALID,998.475,VALID,0,VALID,94.2105,VALID,0,VALID,22.6689,VALID,18,VALID,0.333203,
2011-12-12, 02:43:04,VALID,998.461,VALID,0,VALID,94.2334,VALID,0,VALID,22.6884,VALID,18,VALID,0.285937,
2011-12-12, 02:44:04,VALID,998.452,VALID,0,VALID,94.2334,VALID,0,VALID,22.6672,VALID,18,VALID,0.325781,
2011-12-12, 02:45:04,VALID,998.435,VALID,0,VALID,94.2411,VALID,0,VALID,22.6884,VALID,18,VALID,0.141797,
2011-12-12, 02:46:04,VALID,998.419,VALID,0,VALID,94.264,VALID,0.104696,VALID,22.6672,VALID,18,VALID,0.126172,
2011-12-12, 02:47:04,VALID,998.4,VALID,0,VALID,94.2563,VALID,0,VALID,22.6672,VALID,18,VALID,0,
2011-12-12, 02:48:04,VALID,998.377,VALID,0,VALID,94.264,VALID,0,VALID,22.6672,VALID,18,VALID,0,
2011-12-12, 02:49:04,VALID,998.364,VALID,0,VALID,94.264,VALID,0,VALID,22.6672,VALID,18,VALID,0.0492188,
2011-12-12, 02:50:04,VALID,998.363,VALID,0,VALID,94.2792,VALID,0,VALID,22.6672,VALID,18,VALID,0,
2011-12-12, 02:51:04,VALID,998.393,VALID,0,VALID,94.2945,VALID,0,VALID,22.6477,VALID,18,VALID,0,
2011-12-12, 02:52:04,VALID,998.409,VALID,0,VALID,94.2868,VALID,0,VALID,22.6672,VALID,18,VALID,0,
2011-12-12, 02:53:04,VALID,998.412,VALID,0,VALID,94.3097,VALID,0,VALID,22.6884,VALID,18,VALID,0,
2011-12-12, 02:54:04,VALID,998.447,VALID,0,VALID,94.3174,VALID,0,VALID,22.6884,VALID,18,VALID,0.209375,
2011-12-12, 02:55:04,VALID,998.473,VALID,0,VALID,94.325,VALID,0,VALID,22.6867,VALID,18,VALID,0.139453,
2011-12-12, 02:56:04,VALID,998.452,VALID,0,VALID,94.3326,VALID,0,VALID,22.7062,VALID,18,VALID,0.229297,
2011-12-12, 02:57:04,VALID,998.441,VALID,0,VALID,94.325,VALID,0,VALID,22.6867,VALID,18,VALID,0.357031,
2011-12-12, 02:58:04,VALID,998.435,VALID,0,VALID,94.3326,VALID,0,VALID,22.7079,VALID,18,VALID,0.375391,
2011-12-12, 02:59:04,VALID,998.416,VALID,0,VALID,94.325,VALID,0,VALID,22.7062,VALID,18,VALID,0.320313,
2011-12-12, 03:00:04,VALID,998.431,VALID,0,VALID,94.3326,VALID,0,VALID,22.6867,VALID,18,VALID,0.40625,
2011-12-12, 03:01:04,VALID,998.473,VALID,0,VALID,94.3326,VALID,0,VALID,22.6867,VALID,18,VALID,0.48125,
2011-12-12, 03:02:04,VALID,998.456,VALID,0,VALID,94.3326,VALID,0,VALID,22.7274,VALID,18,VALID,0.484766,
2011-12-12, 03:03:04,VALID,998.464,VALID,0,VALID,94.325,VALID,0,VALID,22.7257,VALID,18,VALID,0.61875,
2011-12-12, 03:04:04,VALID,998.461,VALID,0,VALID,94.3403,VALID,0,VALID,22.7452,VALID,18,VALID,0.614844,
2011-12-12, 03:05:04,VALID,998.464,VALID,0,VALID,94.3479,VALID,0,VALID,22.7452,VALID,18,VALID,0.790625,
2011-12-12, 03:06:04,VALID,998.485,VALID,0,VALID,94.3326,VALID,0,VALID,22.7274,VALID,18,VALID,0.966406,
2011-12-12, 03:07:04,VALID,998.481,VALID,0,VALID,94.2945,VALID,0,VALID,22.6282,VALID,18,VALID,1.00625,
2011-12-12, 03:08:04,VALID,998.487,VALID,0,VALID,94.2945,VALID,0,VALID,22.6104,VALID,18,VALID,0.951563,
2011-12-12, 03:09:04,VALID,998.495,VALID,0,VALID,94.2563,VALID,0,VALID,22.5501,VALID,18,VALID,0.771484,
2011-12-12, 03:10:04,VALID,998.508,VALID,0,VALID,94.2411,VALID,0,VALID,22.5323,VALID,18,VALID,0.717969,
2011-12-12, 03:11:04,VALID,998.494,VALID,0,VALID,94.2105,VALID,0,VALID,22.4933,VALID,18,VALID,0.641016,
2011-12-12, 03:12:04,VALID,998.505,VALID,0,VALID,94.2029,VALID,0,VALID,22.4738,VALID,18,VALID,0.673437,
2011-12-12, 03:13:04,VALID,998.502,VALID,0,VALID,94.1877,VALID,0,VALID,22.4543,VALID,18,VALID,0.656641,
2011-12-12, 03:14:04,VALID,998.504,VALID,0,VALID,94.2029,VALID,0,VALID,22.4543,VALID,18,VALID,0.757813,
2011-12-12, 03:15:04,VALID,998.496,VALID,0,VALID,94.2029,VALID,0,VALID,22.4543,VALID,18,VALID,0.658203,
2011-12-12, 03:16:04,VALID,998.47,VALID,0,VALID,94.2487,VALID,0,VALID,22.4738,VALID,18,VALID,0.748047,
2011-12-12, 03:17:04,VALID,998.426,VALID,0,VALID,94.264,VALID,0,VALID,22.4916,VALID,18,VALID,0.820313,
2011-12-12, 03:18:04,VALID,998.434,VALID,0,VALID,94.264,VALID,0,VALID,22.5111,VALID,18,VALID,0.511328,
2011-12-12, 03:19:04,VALID,998.393,VALID,0,VALID,94.2945,VALID,0,VALID,22.5306,VALID,18,VALID,0.311328,
2011-12-12, 03:20:04,VALID,998.395,VALID,0,VALID,94.3174,VALID,0,VALID,22.5909,VALID,18,VALID,0.420312,
2011-12-12, 03:21:04,VALID,998.383,VALID,0,VALID,94.325,VALID,0,VALID,22.5714,VALID,18,VALID,0.534766,
2011-12-12, 03:22:04,VALID,998.385,VALID,0,VALID,94.3174,VALID,0,VALID,22.5892,VALID,18,VALID,0.397656,
2011-12-12, 03:23:04,VALID,998.381,VALID,0,VALID,94.3326,VALID,0,VALID,22.6299,VALID,18,VALID,0.367188,
2011-12-12, 03:24:04,VALID,998.39,VALID,0,VALID,94.3326,VALID,0,VALID,22.6282,VALID,18,VALID,0.23125,
2011-12-12, 03:25:04,VALID,998.402,VALID,0,VALID,94.3403,VALID,0,VALID,22.6282,VALID,18,VALID,0.226172,
2011-12-12, 03:26:04,VALID,998.401,VALID,0,VALID,94.3555,VALID,0,VALID,22.6282,VALID,18,VALID,0.197266,
2011-12-12, 03:27:04,VALID,998.404,VALID,0,VALID,94.3403,VALID,0,VALID,22.6494,VALID,18,VALID,0.165625,
2011-12-12, 03:28:04,VALID,998.412,VALID,0,VALID,94.3555,VALID,0,VALID,22.6494,VALID,18,VALID,0.236328,
2011-12-12, 03:29:04,VALID,998.42,VALID,0,VALID,94.3555,VALID,0,VALID,22.6494,VALID,18,VALID,0.269141,
2011-12-12, 03:30:04,VALID,998.451,VALID,0,VALID,94.3708,VALID,0,VALID,22.6299,VALID,18,VALID,0.459766,
2011-12-12, 03:31:04,VALID,998.446,VALID,0,VALID,94.3784,VALID,0,VALID,22.6282,VALID,18,VALID,0.675781,
2011-12-12, 03:32:04,VALID,998.476,VALID,0,VALID,94.4013,VALID,0,VALID,22.6672,VALID,24,VALID,0.807813,
2011-12-12, 03:33:04,VALID,998.464,VALID,0,VALID,94.3784,VALID,0,VALID,22.6867,VALID,40,VALID,0.796094,
2011-12-12, 03:34:04,VALID,998.491,VALID,0,VALID,94.4089,VALID,0,VALID,22.7062,VALID,48,VALID,0.792578,
2011-12-12, 03:35:04,VALID,998.5,VALID,0,VALID,94.4013,VALID,0,VALID,22.6672,VALID,52,VALID,0.75625,
2011-12-12, 03:36:04,VALID,998.531,VALID,0,VALID,94.3784,VALID,0,VALID,22.6477,VALID,53,VALID,0.632031,
2011-12-12, 03:37:04,VALID,998.532,VALID,0,VALID,94.386,VALID,0,VALID,22.6689,VALID,53,VALID,0.624609,
2011-12-12, 03:38:04,VALID,998.542,VALID,0,VALID,94.3631,VALID,0,VALID,22.6689,VALID,53,VALID,0.491016,
2011-12-12, 03:39:04,VALID,998.509,VALID,0,VALID,94.3937,VALID,0,VALID,22.6282,VALID,53,VALID,0.502734,
2011-12-12, 03:40:04,VALID,998.499,VALID,0,VALID,94.3708,VALID,0,VALID,22.6477,VALID,53,VALID,0.421094,
2011-12-12, 03:41:04,VALID,998.499,VALID,0,VALID,94.3708,VALID,0,VALID,22.6494,VALID,53,VALID,0.462109,
2011-12-12, 03:42:04,VALID,998.517,VALID,0,VALID,94.3555,VALID,0,VALID,22.6494,VALID,53,VALID,0.467187,
2011-12-12, 03:43:04,VALID,998.518,VALID,0,VALID,94.3784,VALID,0,VALID,22.6282,VALID,53,VALID,0.350781,
2011-12-12, 03:44:04,VALID,998.515,VALID,0,VALID,94.3708,VALID,0,VALID,22.6282,VALID,53,VALID,0.158984,
2011-12-12, 03:45:04,VALID,998.507,VALID,0,VALID,94.3784,VALID,0,VALID,22.6282,VALID,53,VALID,0,
2011-12-12, 03:46:04,VALID,998.52,VALID,0,VALID,94.3784,VALID,0,VALID,22.6282,VALID,53,VALID,0,
2011-12-12, 03:47:04,VALID,998.513,VALID,0,VALID,94.3708,VALID,0,VALID,22.6282,VALID,53,VALID,0,